GW3904 Weather Reports


time (UTC)temp
C
wind
direction
speed
KPH
gust
KPH
rain 1hr
cm
rain 24hr
cm
rain mn
cm
humidity
%
barometer
mb
20260507140253 22 220 11.3 16.1 0.00 0.00 0.00 87 1011.1
20260507135750 22 185 12.9 14.5 0.00 0.00 0.00 87 1011.6
20260507135247 22 177 11.3 12.9 0.00 0.00 0.00 87 1011.7
20260507134743 22 159 11.3 14.5 0.00 0.00 0.00 87 1012.3
20260507134240 22 182 8.0 9.7 0.00 0.00 0.00 87 1012.7
20260507133735 22 184 8.0 9.7 0.00 0.00 0.00 87 1013.4
20260507133232 22 180 1.6 3.2 0.00 0.00 0.00 87 1014.0
20260507132730 22 316 0.0 1.6 0.00 0.00 0.00 88 1014.1
20260507132227 22 256 0.0 0.0 0.00 0.00 0.00 89 1014.3
20260507131723 22 329 0.0 1.6 0.00 0.00 0.00 90 1014.6
20260507131221 22 330 3.2 3.2 0.00 0.00 0.00 90 1014.6
20260507130717 21 183 1.6 3.2 0.00 0.00 0.00 90 1014.2
20260507130215 21 207 3.2 3.2 0.00 0.00 0.00 91 1014.4
20260507125713 21 154 4.8 4.8 0.00 0.00 0.00 91 1014.3
20260507125211 21 194 1.6 1.6 0.00 0.00 0.00 91 1014.4
20260507124707 21 254 1.6 3.2 0.00 0.00 0.00 91 1014.1
20260507124204 21 199 6.4 8.0 0.00 0.00 0.00 91 1013.2
20260507123703 21 196 9.7 11.3 0.00 0.00 0.00 92 1012.8
20260507123159 21 178 6.4 8.0 0.00 0.00 0.00 92 1012.6
20260507122654 21 206 8.0 9.7 0.00 0.00 0.00 92 1012.4
20260507122151 21 161 9.7 11.3 0.00 0.00 0.00 92 1012.1
20260507121647 20 173 6.4 8.0 0.00 0.00 0.00 92 1011.9
20260507121143 21 187 6.4 8.0 0.00 0.00 0.00 92 1011.8
20260507120639 21 171 6.4 8.0 0.00 0.00 0.00 92 1012.1
20260507120136 21 167 6.4 8.0 0.00 0.00 0.00 92 1012.7
20260507115632 20 157 4.8 4.8 0.00 0.00 0.00 92 1013.1
20260507115128 20 244 0.0 1.6 0.00 0.00 0.00 92 1013.7
20260507114624 20 246 0.0 0.0 0.00 0.00 0.00 92 1013.8
20260507114121 20 168 4.8 4.8 0.00 0.00 0.00 92 1013.5
20260507113619 20 159 4.8 4.8 0.00 0.00 0.00 92 1013.4
20260507113116 20 219 1.6 1.6 0.00 0.00 0.00 92 1013.9
20260507112614 20 221 1.6 3.2 0.00 0.00 0.00 92 1013.7
20260507112110 20 229 0.0 0.0 0.00 0.00 0.00 92 1013.8
20260507111607 20 191 3.2 3.2 0.00 0.00 0.00 92 1013.5
20260507111104 20 182 4.8 4.8 0.00 0.00 0.00 92 1013.9
20260507110600 20 180 3.2 3.2 0.00 0.00 0.00 92 1014.0
20260507110057 20 256 0.0 0.0 0.00 0.00 0.00 91 1014.1
20260507105554 20 231 1.6 3.2 0.00 0.00 0.00 91 1014.1
20260507105049 20 313 0.0 0.0 0.00 0.00 0.00 91 1014.4
20260507104547 20 229 1.6 1.6 0.00 0.00 0.00 91 1013.9
20260507104043 20 253 0.0 0.0 0.00 0.00 0.00 91 1014.3
20260507103539 20 256 0.0 0.0 0.00 0.00 0.00 91 1014.1
20260507103036 20 287 0.0 0.0 0.00 0.00 0.00 91 1014.2
20260507102533 20 293 0.0 0.0 0.00 0.00 0.00 91 1014.4
20260507102030 20 268 0.0 0.0 0.00 0.00 0.00 91 1014.4
20260507101525 20 273 0.0 0.0 0.00 0.00 0.00 90 1014.5
20260507101021 21 283 0.0 0.0 0.00 0.00 0.00 90 1014.3
20260507100519 21 284 0.0 0.0 0.00 0.00 0.00 90 1014.5
20260507100017 21 284 0.0 0.0 0.00 0.00 0.00 90 1014.5
20260507095514 21 257 0.0 0.0 0.00 0.00 0.00 90 1014.4
20260507095011 21 272 0.0 0.0 0.00 0.00 0.00 90 1014.6
20260507094507 21 280 1.6 1.6 0.00 0.00 0.00 89 1015.0
20260507094004 21 289 1.6 1.6 0.00 0.00 0.00 89 1014.7
20260507093501 21 283 0.0 0.0 0.00 0.00 0.00 89 1014.5
20260507093000 21 289 0.0 0.0 0.00 0.00 0.00 88 1014.4
20260507092456 21 289 0.0 0.0 0.00 0.00 0.00 88 1014.2
20260507091953 21 285 0.0 0.0 0.00 0.00 0.00 87 1013.9
20260507091449 21 288 0.0 0.0 0.00 0.00 0.00 87 1014.0
20260507090945 21 220 1.6 1.6 0.00 0.00 0.00 87 1013.7
20260507090441 21 338 0.0 0.0 0.00 0.00 0.00 87 1013.6
20260507085938 21 308 0.0 1.6 0.00 0.00 0.00 87 1013.5
20260507085436 21 296 1.6 1.6 0.00 0.00 0.00 86 1013.1
20260507084932 21 321 0.0 1.6 0.00 0.00 0.00 86 1012.9
20260507084429 21 342 1.6 1.6 0.00 0.00 0.00 86 1012.5
20260507083926 21 252 1.6 1.6 0.00 0.00 0.00 86 1012.3
20260507083423 21 247 0.0 0.0 0.00 0.00 0.00 86 1012.3
20260507082914 22 252 0.0 0.0 0.00 0.00 0.00 85 1012.1
20260507082410 22 230 0.0 1.6 0.00 0.00 0.00 85 1012.1
20260507081907 22 227 3.2 3.2 0.00 0.00 0.00 85 1012.1
20260507081403 22 290 0.0 0.0 0.00 0.00 0.00 85 1012.1
20260507080859 22 254 0.0 0.0 0.00 0.00 0.00 84 1012.0
20260507080356 22 267 0.0 0.0 0.00 0.00 0.00 84 1012.0
20260507075851 22 216 4.8 8.0 0.00 0.00 0.00 84 1011.7
20260507075347 22 216 3.2 3.2 0.00 0.00 0.00 84 1011.7
20260507074844 22 196 3.2 4.8 0.00 0.00 0.00 84 1011.4
20260507074342 22 213 4.8 4.8 0.00 0.00 0.00 84 1011.3
20260507073838 22 198 4.8 4.8 0.00 0.00 0.00 83 1011.6
20260507073335 22 216 1.6 3.2 0.00 0.00 0.00 83 1011.6
20260507072833 22 182 4.8 4.8 0.00 0.00 0.00 83 1011.6
20260507072330 22 194 4.8 4.8 0.00 0.00 0.00 83 1011.9
20260507071827 22 224 6.4 8.0 0.00 0.00 0.00 83 1012.2
20260507071324 22 235 1.6 3.2 0.00 0.00 0.00 83 1012.0
20260507070820 22 231 1.6 1.6 0.00 0.00 0.00 83 1012.2
20260507070318 22 192 1.6 3.2 0.00 0.00 0.00 83 1012.2
20260507065814 22 262 0.0 1.6 0.00 0.00 0.00 83 1012.2
20260507065311 22 206 4.8 4.8 0.00 0.00 0.00 83 1012.2
20260507064808 22 167 4.8 4.8 0.00 0.00 0.00 82 1012.2
20260507064307 22 190 3.2 3.2 0.00 0.00 0.00 82 1012.3
20260507063804 23 244 0.0 1.6 0.00 0.00 0.00 82 1012.3
20260507063301 23 187 3.2 3.2 0.00 0.00 0.00 81 1012.5
20260507062757 23 260 0.0 1.6 0.00 0.00 0.00 81 1012.4
20260507062254 23 161 3.2 3.2 0.00 0.00 0.00 81 1012.5
20260507061753 23 205 1.6 3.2 0.00 0.00 0.00 81 1012.5
20260507061250 23 254 1.6 1.6 0.00 0.00 0.00 80 1012.8
20260507060748 23 264 0.0 0.0 0.00 0.00 0.00 80 1012.9
20260507060244 23 268 0.0 1.6 0.00 0.00 0.00 80 1013.0
20260507055741 23 263 3.2 3.2 0.00 0.00 0.00 79 1012.9
20260507055236 23 210 6.4 9.7 0.00 0.00 0.00 79 1012.9
20260507054732 23 233 8.0 11.3 0.00 0.00 0.00 79 1012.6
20260507054229 23 180 8.0 9.7 0.00 0.00 0.00 79 1012.9
20260507053727 23 196 8.0 9.7 0.00 0.00 0.00 79 1013.2
20260507053224 23 194 8.0 11.3 0.00 0.00 0.00 79 1013.3
20260507052723 23 235 4.8 8.0 0.00 0.00 0.00 78 1013.3
20260507052219 23 182 8.0 11.3 0.00 0.00 0.00 78 1013.2
20260507051717 23 207 8.0 9.7 0.00 0.00 0.00 78 1013.2
20260507051214 23 191 6.4 8.0 0.00 0.00 0.00 78 1013.3
20260507050710 23 182 6.4 8.0 0.00 0.00 0.00 78 1013.6
20260507050207 23 194 4.8 9.7 0.00 0.00 0.00 78 1013.6
20260507045704 23 196 6.4 9.7 0.00 0.00 0.00 78 1013.7
20260507045200 23 189 8.0 11.3 0.00 0.00 0.00 78 1013.4
20260507044657 23 195 9.7 14.5 0.00 0.00 0.00 78 1013.5
20260507044154 23 195 9.7 11.3 0.00 0.00 0.00 78 1013.6
20260507043650 23 196 8.0 11.3 0.00 0.00 0.00 79 1013.5
20260507043147 23 171 9.7 11.3 0.00 0.00 0.00 79 1013.7
20260507042644 23 170 8.0 11.3 0.00 0.00 0.00 80 1013.6
20260507042138 23 185 8.0 9.7 0.00 0.00 0.00 80 1013.6
20260507041636 23 170 9.7 11.3 0.00 0.00 0.00 80 1013.6
20260507041132 23 200 8.0 9.7 0.00 0.00 0.00 80 1013.3
20260507040630 23 189 6.4 9.7 0.00 0.00 0.00 80 1013.5
20260507040126 23 181 8.0 11.3 0.00 0.00 0.00 80 1013.6
20260507035622 23 184 11.3 12.9 0.00 0.00 0.00 80 1013.4
20260507035118 23 180 11.3 16.1 0.00 0.00 0.00 81 1013.6
20260507034615 23 176 9.7 16.1 0.00 0.00 0.00 81 1013.4
20260507034113 23 170 8.0 12.9 0.00 0.00 0.00 81 1013.3
20260507033611 23 158 14.5 16.1 0.00 0.00 0.00 81 1013.4
20260507033108 23 202 11.3 14.5 0.00 0.00 0.00 81 1013.4
20260507032605 23 242 9.7 12.9 0.00 0.00 0.00 81 1013.5
20260507032056 23 192 9.7 14.5 0.00 0.00 0.00 80 1013.6
20260507031552 24 147 12.9 16.1 0.00 0.00 0.00 80 1013.7
20260507031049 23 177 14.5 22.5 0.00 0.00 0.00 80 1013.7
20260507030546 24 143 9.7 12.9 0.00 0.00 0.00 79 1013.8
20260507030044 24 221 8.0 12.9 0.00 0.00 0.00 79 1013.7
20260507025541 24 197 12.9 16.1 0.00 0.00 0.00 79 1013.7
20260507025038 24 166 11.3 14.5 0.00 0.00 0.00 79 1013.8
20260507024536 24 175 12.9 16.1 0.00 0.00 0.00 79 1013.6
20260507024032 23 183 8.0 11.3 0.00 0.00 0.00 79 1013.5
20260507023528 23 190 12.9 16.1 0.00 0.00 0.00 79 1013.3
20260507023026 23 197 11.3 14.5 0.00 0.00 0.00 79 1013.5
20260507022523 24 159 8.0 9.7 0.00 0.00 0.00 79 1013.6
20260507022018 24 174 11.3 12.9 0.00 0.00 0.00 79 1013.4
20260507021514 24 183 8.0 12.9 0.00 0.00 0.00 79 1013.5
20260507021011 23 180 11.3 14.5 0.00 0.00 0.00 79 1013.7
20260507020508 23 160 12.9 16.1 0.00 0.00 0.00 79 1013.8
20260507020005 23 188 6.4 8.0 0.00 0.00 0.00 79 1013.5
20260507015503 23 218 8.0 12.9 0.00 0.00 0.00 79 1013.6
20260507015000 23 143 8.0 9.7 0.00 0.00 0.00 79 1013.7
20260507014457 23 175 11.3 12.9 0.00 0.00 0.00 79 1013.8
20260507013953 23 200 8.0 11.3 0.00 0.00 0.00 79 1013.9
20260507013449 23 157 8.0 8.0 0.00 0.00 0.00 79 1013.7
20260507012947 23 169 11.3 14.5 0.00 0.00 0.00 79 1013.8
20260507012443 23 189 9.7 11.3 0.00 0.00 0.00 79 1013.9
20260507011940 23 211 8.0 12.9 0.00 0.00 0.00 79 1013.5
20260507011437 24 264 8.0 11.3 0.00 0.00 0.00 78 1014.1
20260507010937 24 183 6.4 11.3 0.00 0.00 0.00 78 1013.7
20260507010432 24 159 9.7 12.9 0.00 0.00 0.00 78 1013.9
20260507005929 24 177 17.7 22.5 0.00 0.00 0.00 77 1013.6
20260507005426 24 173 11.3 12.9 0.00 0.00 0.00 77 1013.6
20260507004918 24 194 8.0 11.3 0.00 0.00 0.00 77 1013.9
20260507004414 24 209 6.4 11.3 0.00 0.00 0.00 76 1013.8
20260507003912 24 144 9.7 12.9 0.00 0.00 0.00 77 1013.7
20260507003407 24 187 9.7 12.9 0.00 0.00 0.00 77 1013.6
20260507002903 24 180 8.0 9.7 0.00 0.00 0.00 77 1013.7
20260507002359 24 179 12.9 14.5 0.00 0.00 0.00 78 1013.8
20260507001856 24 175 9.7 11.3 0.00 0.00 0.00 78 1013.9
20260507001352 24 190 8.0 11.3 0.00 0.00 0.00 78 1013.4
20260507000850 24 178 11.3 12.9 0.00 0.00 0.00 78 1013.8
20260507000345 25 171 9.7 11.3 0.00 0.00 0.00 77 1013.6
20260506235842 25 179 11.3 12.9 0.00 0.00 0.00 77 1013.5
20260506235339 25 175 11.3 14.5 0.00 0.00 0.00 77 1013.5
20260506234834 25 169 11.3 14.5 0.00 0.00 0.00 77 1013.6
20260506234332 25 165 11.3 12.9 0.00 0.00 0.00 76 1013.4
20260506233830 25 152 9.7 11.3 0.00 0.00 0.00 76 1013.5
20260506233325 25 158 11.3 12.9 0.00 0.00 0.00 76 1013.5
20260506232823 25 183 11.3 11.3 0.00 0.00 0.00 75 1013.4
20260506232318 25 181 9.7 11.3 0.00 0.00 0.00 75 1013.3
20260506231815 26 174 11.3 12.9 0.00 0.00 0.00 75 1013.5
20260506231313 26 202 11.3 14.5 0.00 0.00 0.00 74 1013.7
20260506230810 26 197 11.3 14.5 0.00 0.00 0.00 74 1013.5
20260506230307 26 167 12.9 14.5 0.00 0.00 0.00 73 1013.7
20260506225803 26 154 11.3 14.5 0.00 0.00 0.00 72 1013.7
20260506225300 26 218 9.7 12.9 0.00 0.00 0.00 71 1013.4
20260506224756 26 149 11.3 12.9 0.00 0.00 0.00 70 1013.3
20260506224254 27 177 20.9 25.7 0.00 0.00 0.00 69 1013.3
20260506223749 27 172 19.3 22.5 0.00 0.00 0.00 69 1013.3
20260506223240 27 168 14.5 24.1 0.00 0.00 0.00 68 1013.4
20260506222737 27 162 12.9 17.7 0.00 0.00 0.00 69 1013.5
20260506222232 27 197 14.5 20.9 0.00 0.00 0.00 69 1013.3
20260506221731 27 188 14.5 17.7 0.00 0.00 0.00 69 1013.6
20260506221229 27 167 17.7 24.1 0.00 0.00 0.00 69 1013.5
20260506220725 27 177 9.7 11.3 0.00 0.00 0.00 69 1013.7
20260506220219 27 184 17.7 20.9 0.00 0.00 0.00 70 1013.4
20260506215717 27 173 14.5 16.1 0.00 0.00 0.00 70 1013.4
20260506215212 27 170 14.5 16.1 0.00 0.00 0.00 70 1013.4
20260506214704 27 184 14.5 17.7 0.00 0.00 0.00 70 1013.3
20260506214201 27 177 12.9 14.5 0.00 0.00 0.00 70 1013.6
20260506213659 27 169 12.9 16.1 0.00 0.00 0.00 70 1013.3
20260506213156 28 160 16.1 17.7 0.00 0.00 0.00 69 1013.5
20260506212654 28 183 11.3 12.9 0.00 0.00 0.00 69 1013.6
20260506212153 28 171 11.3 12.9 0.00 0.00 0.00 69 1013.8
20260506211649 28 158 11.3 12.9 0.00 0.00 0.00 68 1013.5
20260506211146 28 175 14.5 16.1 0.00 0.00 0.00 68 1013.7
20260506210643 28 112 19.3 25.7 0.00 0.00 0.00 67 1013.7
20260506210140 28 184 8.0 9.7 0.00 0.00 0.00 68 1013.7
20260506205638 28 235 9.7 12.9 0.00 0.00 0.00 67 1013.7
20260506205137 28 184 9.7 12.9 0.00 0.00 0.00 67 1013.7
20260506204636 28 176 14.5 17.7 0.00 0.00 0.00 67 1013.7
20260506204132 28 195 12.9 14.5 0.00 0.00 0.00 67 1013.6
20260506203631 28 167 11.3 16.1 0.00 0.00 0.00 66 1013.5
20260506203127 28 216 9.7 12.9 0.00 0.00 0.00 67 1013.8
20260506202625 28 197 14.5 16.1 0.00 0.00 0.00 66 1013.8
20260506202121 28 186 6.4 9.7 0.00 0.00 0.00 65 1013.8
20260506201618 29 208 8.0 11.3 0.00 0.00 0.00 64 1013.9
20260506201115 28 163 8.0 11.3 0.00 0.00 0.00 66 1013.8
20260506200611 28 135 14.5 16.1 0.00 0.00 0.00 66 1013.9
20260506200108 28 165 14.5 17.7 0.00 0.00 0.00 66 1013.8
20260506195605 28 166 12.9 16.1 0.00 0.00 0.00 66 1014.0
20260506195101 28 199 11.3 14.5 0.00 0.00 0.00 65 1013.8
20260506194559 28 181 11.3 14.5 0.00 0.00 0.00 65 1014.1
20260506194055 29 195 6.4 11.3 0.00 0.00 0.00 65 1014.1
20260506193553 29 178 16.1 22.5 0.00 0.00 0.00 66 1014.0
20260506193050 29 157 14.5 17.7 0.00 0.00 0.00 65 1014.0
20260506192547 29 181 16.1 20.9 0.00 0.00 0.00 65 1014.1
20260506192042 29 163 16.1 22.5 0.00 0.00 0.00 66 1014.2
20260506191539 29 173 14.5 20.9 0.00 0.00 0.00 64 1014.2
20260506191035 29 147 16.1 17.7 0.00 0.00 0.00 65 1014.2
20260506190533 29 210 9.7 14.5 0.00 0.00 0.00 65 1014.4
20260506190030 30 189 9.7 11.3 0.00 0.00 0.00 65 1014.4
20260506185527 30 168 11.3 12.9 0.00 0.00 0.00 63 1014.2
20260506185023 29 162 11.3 12.9 0.00 0.00 0.00 65 1014.6
20260506184521 30 151 9.7 12.9 0.00 0.00 0.00 65 1014.8
20260506184018 29 165 14.5 17.7 0.00 0.00 0.00 65 1014.8
20260506183513 30 162 11.3 14.5 0.00 0.00 0.00 63 1014.9
20260506183010 30 175 14.5 17.7 0.00 0.00 0.00 63 1014.8
20260506182508 30 167 4.8 4.8 0.00 0.00 0.00 63 1014.8
20260506182004 30 173 14.5 16.1 0.00 0.00 0.00 60 1014.9
20260506181503 31 157 8.0 9.7 0.00 0.00 0.00 51 1015.1
20260506180959 30 166 16.1 20.9 0.00 0.00 0.00 53 1015.1
20260506180456 30 93 4.8 4.8 0.00 0.00 0.00 52 1015.1
20260506175952 30 184 4.8 8.0 0.00 0.00 0.00 52 1015.3
20260506175449 31 236 1.6 3.2 0.00 0.00 0.00 51 1015.2
20260506174945 31 14 3.2 4.8 0.00 0.00 0.00 53 1015.4
20260506174444 31 352 3.2 4.8 0.00 0.00 0.00 52 1015.3
20260506173940 31 94 1.6 4.8 0.00 0.00 0.00 52 1015.5
20260506173437 30 99 1.6 3.2 0.00 0.00 0.00 53 1015.7
20260506172929 30 175 4.8 4.8 0.00 0.00 0.00 54 1015.8
20260506172426 31 322 12.9 16.1 0.00 0.00 0.00 52 1015.9
20260506171922 31 325 3.2 3.2 0.00 0.00 0.00 53 1015.9
20260506171420 30 300 0.0 1.6 0.00 0.00 0.00 54 1016.0
20260506170917 30 203 6.4 8.0 0.00 0.00 0.00 54 1016.3
20260506170413 30 218 1.6 1.6 0.00 0.00 0.00 54 1016.2
20260506165907 30 324 1.6 3.2 0.00 0.00 0.00 54 1016.3
20260506165404 29 255 6.4 9.7 0.00 0.00 0.00 57 1016.3
20260506164855 28 178 9.7 11.3 0.00 0.00 0.00 56 1016.3
20260506164351 30 153 6.4 9.7 0.00 0.00 0.00 55 1016.4
20260506163849 29 281 6.4 9.7 0.00 0.00 0.00 57 1016.5
20260506163343 29 194 11.3 14.5 0.00 0.00 0.00 56 1016.3
20260506162838 30 241 1.6 3.2 0.00 0.00 0.00 56 1016.6
20260506162337 30 191 4.8 4.8 0.00 0.00 0.00 56 1016.3
20260506161834 30 133 1.6 3.2 0.00 0.00 0.00 55 1016.6
20260506161331 29 192 8.0 11.3 0.00 0.00 0.00 56 1016.8
20260506160824 29 187 3.2 8.0 0.00 0.00 0.00 56 1016.6
20260506160320 29 129 3.2 3.2 0.00 0.00 0.00 56 1016.7
20260506155819 29 240 4.8 4.8 0.00 0.00 0.00 56 1016.7
20260506155315 29 175 9.7 14.5 0.00 0.00 0.00 57 1016.7
20260506153427 28 164 11.3 12.9 0.00 0.00 0.00 57 1016.8
20260506152924 28 154 3.2 8.0 0.00 0.00 0.00 60 1016.9
20260506152421 28 115 3.2 3.2 0.00 0.00 0.00 59 1016.9
20260506151920 28 155 3.2 4.8 0.00 0.00 0.00 59 1016.9
20260506151417 28 163 4.8 4.8 0.00 0.00 0.00 61 1017.1
20260506150915 27 99 4.8 4.8 0.00 0.00 0.00 60 1016.8
20260506150410 27 165 6.4 8.0 0.00 0.00 0.00 61 1016.7
20260506145908 27 258 3.2 3.2 0.00 0.00 0.00 62 1016.7
20260506145403 27 154 3.2 3.2 0.00 0.00 0.00 63 1016.5
20260506144901 26 174 1.6 4.8 0.00 0.00 0.00 65 1016.6
20260506144357 26 164 1.6 3.2 0.00 0.00 0.00 64 1016.6
20260506143856 26 187 8.0 11.3 0.00 0.00 0.00 63 1016.6
20260506143353 26 240 9.7 14.5 0.00 0.00 0.00 63 1016.5
20260506142851 26 209 6.4 9.7 0.00 0.00 0.00 65 1016.3
20260506142348 26 193 3.2 4.8 0.00 0.00 0.00 66 1016.3
20260506141847 26 238 3.2 3.2 0.00 0.00 0.00 66 1016.6
20260506141344 26 236 3.2 3.2 0.00 0.00 0.00 67 1016.8
20260506140843 25 243 8.0 11.3 0.00 0.00 0.00 67 1016.4